[[{"header":{"parameterUnit":"m.s-1","parameterCategory":1,"la1":30.2991,"la2":30.254,"lo1":-89.0895,"lo2":-89.0444,"dy":0.0017,"dx":0.0017,"nx":28,"ny":28,"refTime":"2025-06-08T21:00:00:Z","depth":0,"parameterNumber":2,"parameterNumberName":"U-component_of_WINDS"},"data":[0,0,0,0,0,0,0,0,0,0,0,0,0,0,0,0,0,0,0,0,0,0,0,0,0,0,0,0,0,0,0,0,0,0,0,0,0,0,0,0,0,0,0,0,0,0,0,0,0,0,0,0,0,0,0,0,0,0,4.6784,4.6785,0,4.6914,4.6915,4.6916,4.6884,4.6881,4.6879,4.6876,4.701,4.7016,4.7021,0,0,0,0,0,0,0,0,0,0,0,0,0,4.6507,4.6513,4.6784,4.6786,4.6787,4.6913,4.6915,4.6917,4.6884,4.6881,4.6878,4.6875,4.7008,4.7015,4.7022,0,0,0,0,0,0,0,0,0,0,0,0,0,4.6631,4.6514,4.6784,4.6786,4.6787,4.6913,4.6915,4.6917,4.6885,4.6881,4.6877,4.6874,4.7006,4.7014,4.7023,4.7154,0,0,4.705,4.7054,0,0,0,0,0,0,0,0,4.6624,4.6642,4.6784,4.6786,4.6788,4.6878,4.6867,4.6997,4.6886,4.6848,4.6876,4.6872,4.6969,4.6981,4.7014,4.7161,4.7166,4.7051,4.7056,4.706,4.7063,0,0,0,0,0,0,0,4.6616,4.6636,4.6835,4.6786,4.6789,4.678,4.6794,4.6891,4.6928,4.6851,4.6849,4.6865,4.697,4.7005,4.7017,4.7168,4.7051,4.7059,4.7064,4.7068,4.7426,4.743,0,0,0,0,0,0,4.6606,4.6629,4.6831,4.6839,4.6695,4.6788,4.6803,4.6853,4.6927,4.6935,4.6868,4.6863,4.6992,4.7006,4.7021,4.7177,4.706,4.7068,4.7074,4.7422,4.7427,4.7431,0,0,0,0,0,0,4.66,4.6624,4.6826,4.6733,4.6758,4.6797,4.6854,4.6858,4.6893,4.694,4.6946,4.6897,4.6989,4.7009,4.7121,4.7181,4.7072,4.7081,4.7417,4.7423,4.7429,4.7491,0,0,0,0,0,0,4.6592,4.6622,4.6673,4.6735,4.6764,4.6924,4.6857,4.6863,4.6909,4.6903,4.6969,4.6977,4.6988,4.7107,4.7129,4.7191,4.7087,4.7412,4.742,4.7427,4.7484,4.7499,4.7512,0,0,0,0,0,4.6582,4.6686,4.6675,4.67,4.6828,4.6927,4.6943,4.6954,4.6914,4.6964,4.6994,4.6974,4.7172,4.7119,4.7144,4.7209,4.7408,4.7418,4.7427,4.7478,4.7496,4.7511,0,0,0,0,0,0,4.6631,4.6694,4.6683,4.681,4.6863,4.6921,4.6986,4.6974,4.704,4.7032,4.7043,4.7058,4.7171,4.7202,4.7143,4.7339,4.7284,4.7298,4.7314,4.7332,4.7346,4.7335,4.7095,0,0,0,0,0,4.6656,4.6732,4.6783,4.689,4.6917,4.6947,4.6991,4.6994,4.705,4.7072,4.711,4.7165,4.7239,4.7288,4.7359,4.7489,4.7501,4.7546,4.756,4.7571,4.7583,4.7651,4.7671,4.7462,4.7462,4.7462,0,0,4.6709,4.6753,4.6801,4.6901,4.6942,4.7019,4.6966,4.7051,4.7108,4.7085,4.7192,4.7222,4.7284,4.7405,4.746,4.7434,4.7643,4.7583,4.7592,4.7598,4.7663,4.7682,4.77,4.7469,4.7468,4.7467,0,0,4.6845,4.6887,4.6979,4.7022,4.7085,4.7104,4.7126,4.7186,4.7204,4.7312,4.7296,4.7364,4.7492,4.7536,4.7575,4.7725,4.7709,4.7748,4.782,4.7886,4.7903,4.7917,4.7968,4.7986,4.7761,4.7761,4.7761,0,4.6903,4.7019,4.7028,4.7114,4.7157,4.714,4.7232,4.7273,4.7357,4.7387,4.7356,4.7515,4.7556,4.7685,4.7721,4.7755,4.7778,4.774,4.79,4.7914,4.7928,4.7976,4.7996,4.7765,4.7764,4.7764,4.7764,0,4.7086,4.7166,4.7233,4.7312,4.7364,4.7453,4.7475,4.7526,4.7524,4.7546,4.7655,4.7703,4.7782,4.7813,4.7814,4.7942,4.7923,4.7897,4.7841,4.7952,4.7997,4.8016,4.7771,4.7769,4.7768,4.7767,0,0,4.7255,4.7338,4.7362,4.7396,4.7464,4.7526,4.7614,4.769,4.7732,4.7791,4.7862,4.797,4.7945,4.7989,4.7994,4.8053,4.8165,4.8018,4.802,4.8041,4.8306,4.8324,4.8346,4.8156,4.8159,4.8162,4.83,0,4.7395,4.7547,4.7558,4.7696,4.7768,4.7752,4.7828,4.7877,4.79,4.7965,4.799,4.8065,4.8027,4.8053,4.8111,4.8139,4.8218,4.813,4.8221,4.8224,4.8203,4.837,4.839,4.8517,4.8318,4.8321,4.8324,0,4.7578,4.7639,4.7784,4.7839,4.787,4.7938,4.8007,4.807,4.8125,4.8137,4.8186,4.8183,4.8271,4.8214,4.8334,4.8274,4.8312,4.8332,4.8337,4.8344,4.8279,4.8378,4.8559,4.8577,4.8352,4.835,4.8348,0,4.7683,4.7803,4.7904,4.7935,4.8002,4.805,4.808,4.8132,4.8176,4.8237,4.8265,4.8337,4.8375,4.843,4.8445,4.8402,4.8564,4.8509,4.8575,4.8575,4.8608,4.8605,4.8794,4.8638,4.8637,4.8637,4.8636,0,4.7836,4.7924,4.7951,4.8013,4.8111,4.8122,4.8219,4.8247,4.8292,4.8358,4.835,4.8413,4.843,4.8496,4.8509,4.8605,4.8623,4.8634,4.8636,4.8633,4.8631,4.8656,4.8647,4.8642,4.8641,4.864,4.8639,0,4.7969,4.7991,4.81,4.8154,4.817,4.824,4.8286,4.8345,4.8366,4.845,4.847,4.8503,4.858,4.8601,4.8693,4.8701,4.8814,4.8809,4.8794,4.8793,4.8857,4.8849,4.9066,4.9094,4.8922,4.8924,4.8925,0,4.8064,4.8131,4.8192,4.8235,4.8267,4.8338,4.8383,4.8396,4.8443,4.8509,4.856,4.8635,4.8695,4.8818,4.885,4.892,4.8915,4.8986,4.8925,4.8919,4.8912,4.8907,4.8912,4.8997,4.8998,4.9,4.9001,0,4.8228,4.8235,4.83,4.8368,4.8421,4.8476,4.8528,4.8564,4.8585,4.8637,4.8715,4.8761,4.8854,4.8928,4.8998,4.9029,4.9018,4.902,4.9038,4.9035,4.9022,4.9027,4.8822,4.9015,4.9013,4.9012,4.9012,4.9011,4.8343,4.8401,4.8452,4.8524,4.8564,4.8613,4.867,4.8697,4.8762,4.8837,4.8842,4.8925,4.8976,4.9069,4.9104,4.9169,4.9147,4.9175,4.9181,4.9187,4.9191,4.9014,4.9182,4.9182,4.9181,4.9181,4.9181,0,4.8505,4.8536,4.8602,4.8674,4.873,4.8715,4.8771,4.8819,4.8892,4.8941,4.9,4.9087,4.9158,4.9196,4.9266,4.9311,4.9307,4.9328,4.9324,4.933,4.9207,4.9183,4.933,4.933,4.933,4.933,4.933,4.933,4.8595,4.8691,4.8704,4.8819,4.885,4.8931,4.8964,4.9008,4.9047,4.9144,4.9203,4.9226,4.927,4.9343,4.9407,4.9416,4.9441,4.9465,4.9471,4.9355,4.9339,4.9325,4.9302,4.9471,4.9471,4.9588,4.9589,4.959]},{"header":{"parameterUnit":"m.s-1","parameterCategory":1,"la1":30.2991,"la2":30.254,"lo1":-89.0895,"lo2":-89.0444,"dy":0.0017,"dx":0.0017,"nx":28,"ny":28,"refTime":"2025-06-08T21:00:00:Z","depth":0,"parameterNumber":3,"parameterNumberName":"V-component_of_WINDS"},"data":[0,0,0,0,0,0,0,0,0,0,0,0,0,0,0,0,0,0,0,0,0,0,0,0,0,0,0,0,0,0,0,0,0,0,0,0,0,0,0,0,0,0,0,0,0,0,0,0,0,0,0,0,0,0,0,0,0,0,2.8147,2.8147,0,2.8167,2.8167,2.8167,2.8103,2.8101,2.8099,2.8097,2.8119,2.8121,2.8123,0,0,0,0,0,0,0,0,0,0,0,0,0,2.8054,2.8056,2.8147,2.8147,2.8147,2.8167,2.8167,2.8167,2.8103,2.8101,2.8099,2.8096,2.8118,2.8121,2.8124,0,0,0,0,0,0,0,0,0,0,0,0,0,2.8086,2.8056,2.8147,2.8118,2.8115,2.8167,2.8167,2.8167,2.8104,2.8101,2.8098,2.8095,2.8117,2.812,2.8124,2.8205,0,0,2.8135,2.8137,0,0,0,0,0,0,0,0,2.8084,2.8089,2.8122,2.812,2.8117,2.8129,2.8142,2.818,2.8105,2.8108,2.8097,2.8094,2.8125,2.8127,2.8138,2.8206,2.8207,2.8135,2.8137,2.8139,2.814,0,0,0,0,0,0,0,2.8082,2.8088,2.8155,2.8122,2.812,2.8104,2.8105,2.8149,2.8133,2.8108,2.8103,2.8106,2.8123,2.8134,2.8138,2.8207,2.8135,2.8138,2.8141,2.8142,2.8341,2.8344,0,0,0,0,0,0,2.8083,2.8087,2.8154,2.8155,2.8093,2.8108,2.8109,2.8129,2.8132,2.813,2.8109,2.8103,2.813,2.8134,2.8138,2.8232,2.8139,2.8142,2.8144,2.8338,2.8342,2.8345,0,0,0,0,0,0,2.8082,2.809,2.8153,2.812,2.8127,2.8113,2.8135,2.813,2.8142,2.8133,2.813,2.8123,2.8128,2.8133,2.8188,2.8232,2.8144,2.8147,2.8334,2.8339,2.8344,2.8422,0,0,0,0,0,0,2.8079,2.809,2.8121,2.8121,2.8129,2.8204,2.8137,2.8133,2.8148,2.8141,2.8146,2.8144,2.8126,2.8183,2.8192,2.8236,2.815,2.833,2.8337,2.8342,2.8416,2.8429,2.844,0,0,0,0,0,2.8076,2.8142,2.8122,2.8131,2.8167,2.8206,2.8211,2.8188,2.8152,2.8182,2.8176,2.8144,2.8226,2.819,2.8199,2.8244,2.8328,2.8335,2.8342,2.841,2.8426,2.844,0,0,0,0,0,0,2.8148,2.8142,2.812,2.8188,2.8198,2.8195,2.8233,2.8206,2.8227,2.822,2.8191,2.8193,2.8253,2.8254,2.8214,2.8322,2.827,2.828,2.8319,2.8335,2.8347,2.8346,2.8153,0,0,0,0,0,2.8172,2.8204,2.8197,2.8258,2.8264,2.8248,2.8264,2.8246,2.8255,2.8259,2.8257,2.8268,2.8296,2.8315,2.8341,2.8415,2.8415,2.8451,2.8463,2.8473,2.8482,2.852,2.8536,2.8369,2.8368,2.8368,0,0,2.8221,2.8222,2.8244,2.8272,2.8278,2.8312,2.8252,2.8291,2.8316,2.8265,2.8317,2.8316,2.8326,2.8391,2.8419,2.8394,2.8528,2.8482,2.8491,2.8493,2.8529,2.8545,2.8559,2.8373,2.8372,2.8372,0,0,2.8329,2.8333,2.8383,2.839,2.8399,2.8388,2.84,2.8401,2.8398,2.8449,2.8412,2.8441,2.8491,2.8499,2.851,2.8619,2.859,2.8628,2.8693,2.8731,2.8744,2.8756,2.8795,2.8809,2.8636,2.8637,2.8637,0,2.8389,2.8439,2.8413,2.8454,2.8467,2.8422,2.8473,2.8481,2.8498,2.8509,2.8479,2.8539,2.8543,2.8609,2.8635,2.8645,2.8658,2.8628,2.8745,2.8756,2.8766,2.8803,2.8818,2.8641,2.8641,2.864,2.864,0,2.8513,2.8548,2.8588,2.8605,2.8622,2.8669,2.8649,2.867,2.865,2.8642,2.8694,2.8697,2.8722,2.8736,2.8717,2.8799,2.8782,2.8749,2.8697,2.8787,2.8822,2.8835,2.8648,2.8646,2.8645,2.8644,0,0,2.8668,2.8668,2.8683,2.869,2.8696,2.8723,2.8767,2.879,2.8809,2.8822,2.8857,2.8899,2.8868,2.8881,2.8862,2.8896,2.8982,2.8858,2.8858,2.8881,2.9072,2.9097,2.9114,2.8962,2.8964,2.8966,2.9071,0,2.8773,2.8848,2.8825,2.89,2.8932,2.8889,2.8926,2.8934,2.8928,2.8954,2.8946,2.8976,2.8933,2.894,2.8971,2.8965,2.902,2.8957,2.8995,2.8997,2.8994,2.9132,2.9158,2.9257,2.9084,2.9086,2.9088,0,2.8907,2.8924,2.9003,2.9002,2.9015,2.9049,2.9068,2.9094,2.9102,2.9094,2.9107,2.9081,2.9124,2.9071,2.9129,2.9087,2.9101,2.91,2.9103,2.9107,2.9048,2.9138,2.9288,2.9303,2.9109,2.9107,2.9106,0,2.9011,2.9055,2.9107,2.9114,2.9115,2.914,2.9142,2.9146,2.9162,2.9179,2.9188,2.921,2.9222,2.924,2.922,2.9184,2.9282,2.9227,2.9277,2.9277,2.93,2.9299,2.9454,2.9309,2.9308,2.9308,2.9308,0,2.9132,2.9182,2.9154,2.9186,2.924,2.9213,2.9267,2.9264,2.9268,2.9299,2.9263,2.9292,2.9265,2.9292,2.9277,2.9327,2.9333,2.9328,2.9324,2.9332,2.9332,2.9341,2.9334,2.9312,2.9311,2.931,2.931,0,2.9259,2.9242,2.9296,2.9292,2.9292,2.9332,2.9329,2.9358,2.9348,2.9387,2.9395,2.938,2.941,2.9392,2.9422,2.9412,2.9478,2.9464,2.9475,2.9471,2.9522,2.9517,2.9688,2.9709,2.955,2.9552,2.9553,0,2.9337,2.9374,2.9373,2.9391,2.9395,2.9424,2.9439,2.9414,2.9431,2.9442,2.947,2.9497,2.9517,2.9566,2.9558,2.9581,2.9568,2.9626,2.9571,2.9577,2.9568,2.9567,2.957,2.9637,2.9639,2.9641,2.9642,0,2.9477,2.9467,2.949,2.951,2.9529,2.9544,2.9556,2.9573,2.9547,2.9568,2.9598,2.9613,2.9644,2.9671,2.969,2.9692,2.9663,2.9659,2.9672,2.968,2.9685,2.9683,2.9506,2.9655,2.9654,2.9653,2.9652,2.9652,2.9582,2.9612,2.9617,2.9644,2.965,2.9661,2.9689,2.9682,2.9706,2.9729,2.9712,2.9747,2.9753,2.9776,2.9781,2.9808,2.9785,2.9803,2.9808,2.9813,2.982,2.9681,2.9812,2.9811,2.9811,2.981,2.981,0,2.972,2.9721,2.9746,2.9763,2.9784,2.9754,2.9765,2.9785,2.9816,2.9824,2.9844,2.9878,2.9904,2.9897,2.992,2.9943,2.993,2.995,2.9948,2.9949,2.9839,2.9826,2.996,2.996,2.996,2.9959,2.9959,2.9959,2.9795,2.9845,2.9835,2.9887,2.9887,2.9921,2.993,2.9941,2.9946,2.9986,3.0007,3.0002,3.0004,3.0026,3.0048,3.0046,3.0056,3.008,3.0073,2.9971,2.9956,2.9942,2.993,3.0083,3.0083,3.018,3.0181,3.0181]}]]